Back to catalog

SHIJIAN 6 01B

SJ-6 01B

AliveScienceSSO
NORAD 28414·PAYLOAD·🇨🇳 China

Launched Sep 8, 2004 from Taiyuan Satellite Launch Center

Loading…

Next Passes (next 24 hours)

TLE

FreshSource: Space-Track

Epoch: Sep 14, 2026, 15:31 UTC

1 28414U 04035B   26257.64704848  .00002651  00000-0  18186-3 0  9995
2 28414  97.6045 274.3988 0004317 174.5887 185.5388 15.06861585200294

Track SHIJIAN 6 01B in real time with AllMySat

Download on the App Store